Погода в Чувашской Чебоксарке

Россия / Республика Татарстан     55°04′37″N   50°53′34″E
темп.,
°C
ветер,
м/с
пор.,
м/с
влажн.,
%
обл.,
%
осадки,
мм/ч
давл.,
гПа
погр.,
м
10 мая, пн
пн1000:00+16юв31166100 0.0 1015255
03:00+16ююв486657 0.1 1016135
06:00+16вюв4863100 0.0 1017177
09:00+20юв5848100 0.0 1018496
12:00+23юв5538100 0.0 10191797
15:00+24вюв453440 0.0 10192339
18:00+20всв365337 0.0 1020122
21:00+16в3459100 0.0 102257
11 мая, вт
вт1100:00+15в3461100 0.0 102258
03:00+14в3462100 0.0 102349
06:00+16всв2462100 0.0 1024116
09:00+21всв3447100 0.0 1025468
12:00+24в343794 0.0 10251818
15:00+24всв4335100 0.0 10262026
18:00+20св485591 0.0 1026187
21:00+17всв2263100 0.0 102721
12 мая, ср
ср1200:00+16в116237 0.0 102711
03:00+15в006682 0.0 102711
06:00+17в2265100 0.0 102874
09:00+21в345199 0.0 1028545
12:00+24вюв443614 0.0 10282412
15:00+24юв343235 0.0 10272560
18:00+22вюв225044 0.0 102717
21:00+18юв225940 0.0 102827
13 мая, чт
чт1300:00+16юв226284 0.0 102811
03:00+15вюв2259100 0.0 102811
06:00+17вюв256151 0.0 1028146
09:00+21юв4643100 0.0 1028691
12:00+24юв57355 0.0 10271776
15:00+24ююв56345 0.0 10261867
18:00+22ююв235035 0.0 102647
21:00+17ююв33520 0.0 102629
14 мая, пт
пт1400:00+16ююв22565 0.0 102619
03:00+15ююв33585 0.0 102629
06:00+17ююв366132 0.0 1026157
09:00+22ююв4645100 0.0 1026533
12:00+25ю5635100 0.0 10251313
15:00+25ю563893 0.0 10241476
18:00+22ююв35545 0.0 102391
21:00+18ююв465973 0.0 102375